Location: Bratislava
(0.0000°N, 17.1167°E)
Time: 04:24:34
(UTC+01:00)

Cosmos-2242 - Pass Details

Date: 24 January 2021
Orbit: 592 x 616 km, 82.5° (Epoch: 06 March)

Event Time Altitude Azimuth Distance (km) Brightness Sun altitude
Exits shadow 19:03:28 - 9° (N) 2,793 6.1 -14.1°
Reaches altitude 10° 19:05:39 10° 16° (NNE) 1,943 5.3 -14.6°
Maximum altitude 19:09:42 42° 86° (E) 875 3.4 -15.6°
Drops below altitude 10° 19:13:49 10° 157° (SSE) 1,965 5.6 -16.5°
Sets 19:16:08 0° 164° (SSE) 2,875 6.5 -17.1°
